Theta_e
320 321 318 316 314 313 312 313 314 315 316 316 316 315 314 313 311 309 309 315 316 316 315 314 314 317 319 318 316 318 314 315 310 311 314 315 315 316 317 317 320 318 321 322 320 324 324 321 321 324 322 323 322 322
321 317 314 311 310 309 308 308 308 308 309 311 312 311 311 310 309 308 309 310 310 311 311 311 310 313 314 311 317 317 315 315 314 311 312 313 316 314 315 319 315 320 318 319 321 320 319 320 320 321 322 322 322 322
315 312 310 308 307 306 306 305 305 305 306 306 307 307 308 307 307 307 308 309 310 311 310 311 315 318 318 318 313 315 316 316 316 317 314 312 316 313 317 315 318 318 318 319 319 318 318 321 322 322 321 323 323 323
311 309 307 306 305 305 305 305 304 304 304 304 305 306 306 306 306 308 308 309 310 311 311 312 316 318 316 319 319 316 316 316 316 318 316 312 316 316 315 316 316 318 317 317 316 317 320 324 324 324 323 323 324 323
308 306 305 306 306 306 305 305 305 305 304 304 304 304 305 306 307 309 313 312 311 312 310 312 313 316 315 317 319 317 317 317 317 318 314 315 315 315 313 312 313 316 316 321 324 322 322 323 325 327 325 325 326 325
306 305 307 304 303 303 303 304 304 305 304 304 304 304 305 306 308 312 313 312 312 313 313 310 312 311 315 316 318 319 319 318 318 319 316 318 318 317 315 314 315 318 319 321 321 323 322 324 327 326 326 326 324 322
305 306 304 304 304 304 303 303 304 304 304 304 304 304 306 307 307 308 312 313 312 312 312 311 309 314 319 317 318 317 318 318 318 320 318 318 318 318 314 314 319 321 322 323 326 322 323 327 327 326 326 323 322 325
304 303 304 304 303 303 303 303 303 304 304 304 306 307 307 307 309 310 310 311 312 312 312 309 308 314 318 318 317 317 317 319 320 319 319 317 316 316 317 315 320 321 324 328 328 328 328 327 327 325 323 322 321 323
304 304 304 303 303 303 303 303 303 304 304 307 308 309 309 310 310 310 310 310 310 311 310 311 309 316 318 318 324 323 321 318 320 316 317 317 314 318 316 318 321 326 327 328 327 328 327 327 325 326 323 323 323 322
303 303 303 303 303 303 303 303 304 304 306 308 309 310 312 312 312 311 311 310 310 310 310 309 310 310 314 317 319 323 322 318 319 317 319 315 316 320 321 325 327 328 326 328 327 327 328 326 326 325 325 324 323 323
303 303 303 303 303 303 303 303 303 304 306 307 308 310 311 310 311 311 312 311 311 310 310 310 310 309 313 314 317 320 317 317 322 319 321 326 324 323 326 327 327 327 328 327 330 330 328 325 326 324 325 326 325 322
303 303 303 303 303 303 303 304 305 305 305 306 306 308 309 310 311 313 313 312 313 311 312 311 313 313 313 315 319 320 320 317 322 320 326 331 328 326 327 327 327 329 327 329 330 329 327 327 327 326 326 326 326 325
302 303 303 302 303 303 304 304 305 304 304 305 308 309 311 310 312 314 315 316 315 316 318 318 318 317 315 318 320 318 322 322 323 327 327 329 325 327 327 328 327 329 327 328 329 330 328 327 327 326 326 325 325 324
302 303 303 303 305 304 304 304 305 304 305 306 308 307 309 313 312 315 316 316 315 317 318 318 319 321 322 320 318 322 320 323 327 330 331 324 326 327 326 328 328 329 329 328 327 326 326 325 325 324 323 324 325 323
302 302 303 304 304 305 306 306 305 304 305 308 309 308 308 310 310 312 312 313 314 315 316 318 318 320 320 323 317 318 323 324 327 328 324 323 327 326 328 328 329 329 328 327 326 325 325 323 323 324 324 323 322 322
302 302 304 304 304 305 307 308 305 304 305 307 307 308 309 308 310 312 313 314 314 315 317 317 319 322 323 321 320 320 323 327 325 323 322 326 327 327 328 327 327 328 328 326 326 326 322 323 323 322 321 321 321 320
302 303 305 304 304 305 304 306 306 305 306 308 307 307 308 308 308 310 312 313 313 313 317 316 319 323 320 320 321 319 321 319 322 323 324 327 326 327 327 326 327 327 327 326 326 325 324 323 325 324 323 323 321 319
302 302 305 304 305 303 303 306 307 307 308 307 307 307 308 308 309 309 309 311 313 314 315 316 316 319 321 324 321 320 322 323 323 324 327 326 326 328 327 326 327 327 327 327 324 323 325 323 320 318 315 310 309 309
302 302 302 302 303 302 302 307 307 307 307 307 307 307 307 308 309 310 312 312 312 314 314 315 319 319 319 320 321 323 324 323 321 324 327 326 328 328 327 326 327 328 327 324 324 324 324 324 322 321 317 310 306 306
303 302 302 302 303 303 304 306 306 307 307 307 307 308 308 309 310 311 312 312 314 315 316 317 318 319 320 321 320 320 322 321 324 327 326 328 328 328 327 326 327 327 324 324 325 325 326 325 323 322 318 314 314 315
302 304 304 305 305 304 303 306 306 307 307 307 308 309 310 310 311 311 312 313 314 315 315 316 316 318 321 322 320 318 320 321 322 326 327 328 328 328 328 328 326 327 325 324 326 327 327 325 325 325 324 320 316 315
303 304 305 305 304 304 305 305 306 307 306 308 308 309 310 309 311 311 312 313 314 315 315 315 314 315 317 318 320 321 320 319 321 325 326 327 328 328 328 328 328 327 327 327 327 327 325 324 323 322 319 319 319 318
303 304 305 305 305 305 305 305 306 307 309 310 311 311 312 314 315 315 313 313 314 314 315 315 315 316 316 317 317 321 319 319 320 325 326 325 328 328 328 328 328 328 328 327 327 324 322 322 320 320 319 318 317 319
304 304 305 306 305 305 306 307 308 309 310 310 312 313 314 314 315 315 316 316 319 320 319 316 316 316 316 317 317 321 319 320 321 325 327 327 327 327 328 328 327 325 325 325 324 323 323 321 318 317 316 317 317 318
304 304 305 305 306 307 307 308 311 311 312 312 313 314 314 315 316 316 316 315 319 319 321 320 317 317 317 317 319 322 319 320 323 326 327 328 326 326 327 327 325 323 323 323 322 320 319 318 318 317 317 318 319 319
303 305 304 307 308 307 308 309 310 310 310 311 314 314 313 316 317 318 318 318 319 319 321 321 318 317 318 320 322 322 321 321 326 327 327 327 326 325 327 326 324 325 324 319 318 318 318 318 318 319 319 319 319 318
305 305 306 307 307 308 308 309 309 309 310 312 313 313 313 317 318 317 317 317 317 319 320 321 320 319 320 322 322 320 320 325 326 326 327 326 326 326 325 324 324 322 321 321 320 318 318 319 319 319 319 320 319 317
305 305 305 308 308 309 309 309 309 311 313 310 312 312 312 311 313 314 315 317 319 321 322 323 323 322 323 323 322 320 325 325 325 325 328 326 325 325 324 324 322 321 321 320 319 319 320 320 319 319 319 317 314 314
304 305 306 306 307 310 309 308 309 311 313 313 314 315 314 314 315 315 318 318 320 322 322 322 322 322 322 322 321 322 325 325 326 327 328 327 325 324 324 321 321 321 321 320 319 319 320 320 320 320 317 315 316 315
306 306 306 308 310 310 309 309 309 310 310 310 311 311 311 313 316 319 320 320 321 322 323 322 321 322 323 323 324 324 325 326 326 326 326 325 323 323 323 323 323 322 321 319 319 320 320 320 321 320 319 318 318 317
306 307 307 308 308 308 308 309 309 309 309 310 311 311 312 314 321 320 320 320 322 322 322 322 323 323 323 324 325 325 326 325 323 325 327 325 322 322 323 321 321 320 319 321 321 321 321 321 321 320 319 319 318 317
307 307 307 306 308 310 310 310 310 311 312 312 314 314 315 317 321 321 320 322 323 322 322 323 324 324 324 325 325 326 326 323 323 324 324 325 324 324 324 323 324 319 320 321 321 321 321 321 321 320 320 320 319 317
309 309 309 309 309 310 312 311 312 313 314 315 316 316 316 316 319 322 321 322 322 323 323 324 325 325 325 325 325 326 325 323 318 318 319 323 324 323 323 322 319 318 319 320 321 321 321 321 322 322 322 321 320 319
Wind_Speed
33 36 34 31 28 27 26 24 24 24 23 21 19 18 17 14 12 8 7 8 6 6 18 21 19 9 6 2 2 2 3 3 4 4 2 2 2 2 2 2 2 2 1 2 1 3 6 2 11 3 6 15 18 19
31 31 28 24 23 23 22 22 21 20 19 19 18 16 15 15 13 10 5 8 14 13 14 22 26 23 29 31 9 2 1 2 3 4 1 2 0 1 3 2 4 2 5 3 6 5 11 29 18 25 19 21 22 21
26 23 22 21 20 20 20 20 19 19 18 17 16 15 14 12 12 11 9 9 9 9 19 16 3 3 8 14 22 9 5 5 4 2 6 2 1 3 1 5 2 3 4 4 3 5 15 24 26 27 25 26 22 29
20 18 17 17 17 18 18 18 19 18 18 17 16 15 13 11 9 10 9 7 5 5 4 6 6 8 3 7 13 22 7 6 5 5 3 3 2 6 4 3 4 6 4 4 6 13 17 21 26 35 36 36 33 32
14 14 14 15 17 17 18 18 18 18 18 18 16 14 12 11 7 6 2 2 1 4 4 15 22 10 11 12 14 19 20 10 7 3 2 3 3 2 1 1 4 7 7 4 6 18 21 21 37 39 37 36 34 35
12 12 14 14 16 17 17 17 17 18 18 17 16 13 12 9 5 4 3 4 2 2 4 4 7 4 5 7 18 21 21 16 8 4 3 3 3 2 1 3 9 13 16 20 20 26 33 37 33 32 34 34 34 37
11 12 13 15 16 17 17 17 17 18 17 16 14 14 9 4 4 2 3 4 5 4 3 8 10 4 2 7 14 17 21 10 6 5 4 5 4 3 2 3 12 13 20 32 34 31 22 20 27 33 26 26 27 26
12 13 14 15 17 17 17 17 18 18 16 14 12 8 5 5 2 4 2 3 5 4 4 2 4 9 2 4 6 10 12 8 2 3 5 4 4 1 3 15 21 22 28 27 27 29 22 24 24 18 20 21 21 17
14 15 16 16 17 17 17 17 17 16 13 11 7 4 3 4 2 1 3 3 4 4 3 3 2 3 8 2 5 4 5 2 1 2 3 5 2 4 8 14 20 24 21 28 28 22 19 21 13 14 15 18 17 13
16 16 16 16 17 17 16 16 16 14 7 6 5 2 1 3 4 7 1 2 4 5 5 4 5 4 8 4 2 4 2 2 1 2 7 2 4 19 20 15 18 18 20 20 18 19 19 15 12 11 9 10 11 9
15 15 14 15 17 15 14 14 15 14 4 5 3 2 5 7 3 1 2 3 3 3 5 6 7 4 3 0 2 1 3 1 1 3 3 2 3 5 9 16 16 18 17 17 14 11 12 7 6 8 6 5 1 5
14 13 13 14 15 14 11 10 12 9 3 4 7 9 5 1 3 2 2 2 4 4 5 4 5 9 6 4 2 1 3 2 4 8 2 3 3 7 14 15 15 17 14 12 8 4 5 4 5 5 4 6 4 3
14 13 12 13 14 11 7 8 9 7 2 2 3 3 3 2 2 4 3 2 1 3 1 3 4 4 6 5 4 3 3 4 7 2 3 2 4 10 12 12 14 10 11 9 7 5 3 5 7 9 11 11 12 14
12 10 10 10 6 10 11 10 8 2 2 2 2 3 3 3 4 1 2 2 7 6 9 7 5 3 2 2 3 3 2 1 2 3 2 1 6 12 9 10 12 10 8 7 5 7 9 12 14 13 11 13 16 17
9 8 6 4 8 11 8 5 4 3 3 3 3 4 4 7 4 4 7 7 8 7 10 3 2 3 3 1 1 3 2 3 3 2 2 4 8 6 7 9 8 6 7 9 9 14 19 23 24 26 26 27 27 28
7 5 2 4 7 8 7 2 1 4 3 3 5 4 8 6 7 5 7 6 4 11 4 2 1 2 1 3 3 5 4 4 2 2 3 4 5 4 6 9 6 6 8 11 17 20 25 26 24 24 22 21 19 18
6 2 3 5 8 10 9 4 3 4 4 4 6 13 17 14 15 16 11 9 12 8 3 1 1 4 2 3 3 4 4 3 3 1 2 3 1 1 5 9 11 11 15 23 22 21 22 21 17 15 17 16 14 14
7 6 7 8 9 10 12 4 3 4 5 9 7 10 12 16 19 22 18 12 11 4 2 3 3 4 2 3 2 2 4 4 2 3 2 1 3 4 5 7 10 15 24 20 20 20 16 17 19 20 18 17 17 16
10 11 7 9 8 6 4 3 5 4 7 10 17 21 18 20 20 18 15 17 17 15 3 4 6 4 3 2 2 9 7 3 5 2 1 5 3 7 6 10 15 24 21 20 17 16 17 17 19 18 17 16 19 19
10 6 8 9 8 2 3 4 3 5 5 6 12 14 11 14 17 15 15 17 12 9 6 4 3 1 3 9 7 6 8 8 6 2 6 7 7 10 10 13 18 18 18 17 14 15 13 13 17 17 18 19 20 21
5 1 4 1 8 8 4 3 4 5 8 7 13 13 10 14 17 18 17 12 14 6 5 11 8 7 4 9 6 1 4 4 6 2 4 9 4 10 12 11 16 15 15 15 14 10 10 13 14 10 7 13 15 16
2 3 3 3 3 4 5 6 6 8 6 9 12 7 7 5 5 6 7 7 5 10 17 19 21 16 12 5 5 7 3 3 7 4 10 5 1 10 16 15 15 16 17 17 11 9 16 16 12 10 14 13 10 9
3 3 2 3 2 3 4 5 4 4 3 4 4 3 4 3 3 1 5 6 8 19 20 20 20 17 17 14 10 5 3 3 6 3 12 9 7 12 11 11 10 12 17 17 15 18 19 16 11 13 12 13 15 16
2 1 2 2 4 4 3 4 5 4 5 3 2 3 3 3 6 2 2 3 5 8 6 14 21 18 17 15 13 8 3 3 4 8 7 8 14 12 10 9 11 17 22 24 24 19 14 15 15 13 13 12 10 8
2 2 2 4 4 4 3 3 4 3 2 2 3 3 2 4 1 2 1 3 13 16 15 7 15 16 14 12 10 10 3 7 6 9 9 15 16 13 13 12 20 22 23 20 17 17 17 18 15 13 12 10 8 7
1 3 4 3 3 3 2 3 3 3 4 3 3 5 4 2 2 2 1 8 10 15 14 5 9 14 13 11 11 8 4 9 10 6 14 15 15 17 21 23 22 18 19 17 17 16 13 11 11 11 8 4 5 2
2 3 4 6 5 4 5 8 10 4 3 3 3 6 4 3 2 3 7 12 17 16 9 1 7 12 12 12 8 3 9 10 12 8 11 7 11 20 23 24 22 19 18 15 14 14 13 10 10 8 5 4 4 5
4 4 3 5 5 6 3 3 2 3 3 3 3 2 2 2 3 7 14 17 13 2 7 8 6 4 11 9 5 5 10 19 10 6 10 11 17 20 21 20 19 19 15 15 15 17 15 13 14 11 6 10 12 11
5 6 7 9 6 4 4 4 4 3 3 9 7 2 2 6 18 24 15 10 3 4 6 6 5 6 8 10 6 4 17 16 14 12 13 16 18 20 18 19 19 18 17 13 16 15 10 8 4 8 11 12 8 5
5 4 4 4 2 3 5 7 11 20 26 26 20 23 23 20 18 11 12 6 3 3 3 5 8 10 11 9 13 24 16 7 11 15 17 21 22 23 21 20 17 17 15 13 16 17 11 5 13 10 7 6 4 4
8 11 8 10 8 21 25 25 25 28 31 31 22 20 16 8 1 7 11 5 2 8 6 5 6 10 12 12 15 16 7 7 10 15 20 22 27 27 21 20 20 16 14 14 15 17 16 12 9 7 8 4 2 3
5 3 3 3 7 13 15 7 5 5 5 5 4 2 2 9 5 4 17 11 3 9 8 7 11 14 16 14 16 11 9 13 18 20 20 24 25 24 23 19 17 16 15 13 11 10 10 8 6 6 6 3 6 4
5 8 8 5 5 5 6 5 4 4 4 4 3 5 3 1 5 5 12 14 9 8 9 10 12 12 13 16 21 14 8 8 17 17 18 21 22 21 22 22 20 17 14 12 9 8 8 8 6 6 3 2 3 2
Wind_Direction
311 311 317 320 322 323 324 323 322 318 317 316 319 319 319 322 323 319 279 275 276 261 280 270 265 209 197 223 174 295 12 340 42 69 127 205 172 266 9 283 185 208 346 309 98 239 274 210 348 113 245 297 299 299
307 311 316 320 322 324 326 327 327 328 327 323 319 318 315 313 313 313 285 263 275 265 267 277 273 252 257 268 255 211 188 222 182 94 103 107 30 32 144 287 325 285 184 208 187 229 276 297 288 298 280 284 291 290
307 313 318 321 324 327 327 328 328 329 329 329 325 320 316 312 310 313 312 299 297 282 289 278 289 174 292 224 213 219 236 201 157 128 152 146 202 128 193 245 237 275 195 222 357 271 256 287 300 292 293 292 288 292
309 315 320 324 328 331 332 334 333 332 332 328 325 324 321 317 310 310 316 294 307 312 292 286 226 258 269 203 201 201 144 156 164 163 130 131 177 188 206 239 211 228 178 224 260 279 289 291 298 296 298 293 287 277
310 316 319 321 324 325 326 329 333 336 336 333 327 324 321 321 314 321 329 147 64 333 290 289 301 253 216 207 196 191 206 231 213 153 104 211 187 140 360 360 255 193 200 180 265 293 294 286 300 304 298 294 297 289
311 314 319 323 327 329 329 328 328 325 325 330 330 325 324 319 328 166 202 206 242 317 304 301 310 278 217 187 204 205 212 218 198 181 188 178 157 140 118 253 263 243 255 272 279 294 295 298 303 303 303 302 300 289
308 313 316 320 322 324 326 326 328 330 327 329 329 323 325 310 306 252 211 174 216 295 287 301 310 289 83 156 177 192 196 207 207 186 169 158 172 197 159 224 266 290 304 312 316 302 294 305 296 317 312 310 321 305
307 310 313 318 322 321 321 323 328 332 330 327 334 348 338 317 23 74 60 255 234 263 274 281 277 318 83 165 134 172 183 192 171 166 139 135 138 145 257 245 264 296 315 319 314 324 304 311 322 332 333 337 338 342
304 306 309 313 318 318 319 320 323 331 330 331 339 17 68 51 82 11 302 259 233 225 278 253 264 275 358 119 121 121 160 96 199 132 180 140 149 231 231 267 297 316 318 316 329 327 339 333 330 338 346 354 355 349
301 301 302 306 310 314 316 317 321 329 322 326 330 358 44 13 302 323 318 208 209 208 224 255 278 272 336 10 76 111 85 134 159 248 140 150 253 260 277 294 308 320 324 326 322 329 332 327 3 348 340 344 1 16
304 301 299 302 309 317 318 317 318 328 288 324 338 304 287 307 295 222 226 198 175 251 220 236 239 265 301 239 168 130 154 142 161 243 158 213 256 242 313 319 328 333 328 327 324 317 316 303 355 12 4 356 309 64
307 305 304 309 316 319 319 325 329 329 265 311 310 302 316 291 231 240 220 193 208 233 209 214 260 229 261 248 149 123 110 73 240 154 216 243 248 313 328 330 342 346 353 359 359 353 10 32 29 36 41 52 65 208
307 304 310 317 318 317 324 328 327 330 171 294 317 291 258 222 286 206 211 192 209 203 323 294 288 238 228 225 87 93 129 217 132 210 234 228 286 330 339 335 346 353 9 14 4 44 42 43 51 64 79 83 93 100
306 305 314 322 337 330 315 311 310 263 217 219 244 270 213 202 250 68 350 352 320 321 334 334 308 305 311 178 148 132 223 138 232 227 225 218 317 341 345 345 353 16 28 26 73 41 77 73 75 78 86 97 89 99
306 316 324 321 332 328 323 323 278 194 224 254 245 243 231 253 293 301 310 295 325 324 345 327 305 295 299 235 63 103 131 243 241 239 233 288 342 347 352 3 12 32 73 79 91 94 105 104 91 101 102 101 101 105
313 323 228 311 338 337 2 311 248 200 243 240 234 259 266 301 281 235 306 290 354 341 313 233 209 261 315 233 171 200 176 222 239 210 274 305 348 1 15 16 34 92 94 113 115 114 114 108 103 98 93 97 95 95
307 294 250 306 319 337 343 290 226 224 238 235 238 235 244 274 276 281 300 266 318 310 223 104 276 223 216 215 185 180 197 224 203 121 303 319 35 51 58 45 87 107 121 124 122 116 112 105 96 92 88 88 92 94
313 276 269 291 315 314 322 238 251 250 248 248 257 266 253 256 268 279 285 268 260 300 224 210 330 250 229 147 222 209 323 294 335 321 337 94 119 115 73 81 89 138 136 128 122 116 104 100 96 90 85 84 87 89
299 295 271 291 312 323 284 248 215 270 257 268 267 271 275 277 276 273 277 271 264 241 230 228 222 218 194 185 287 359 8 327 339 309 255 143 109 134 110 101 114 131 135 135 122 112 105 98 94 91 85 86 91 94
300 279 260 267 259 257 268 250 236 262 271 288 281 273 269 260 283 282 275 271 234 190 216 229 243 307 99 154 156 269 342 341 334 326 155 146 138 147 123 121 142 135 143 137 129 126 115 113 110 95 89 95 100 104
298 312 311 295 209 217 274 283 259 254 283 263 278 286 275 274 263 259 251 249 203 210 223 242 289 310 76 116 153 319 255 320 335 208 157 143 106 176 171 146 162 165 154 154 151 130 118 136 121 113 90 115 112 109
274 313 298 268 230 226 254 246 252 280 279 265 290 254 268 276 257 238 211 195 229 225 231 247 258 260 271 258 261 246 223 14 5 306 189 182 359 178 184 188 181 183 181 167 160 142 132 126 120 127 126 119 109 101
267 290 246 241 255 249 264 252 252 244 255 257 276 276 257 258 246 280 206 217 238 257 251 240 242 243 253 264 288 241 233 315 341 247 196 256 240 185 177 182 189 202 187 189 148 144 134 129 126 128 133 130 121 112
284 259 245 245 225 263 270 247 236 251 259 265 265 260 275 282 304 249 247 213 28 353 311 239 233 238 242 248 255 233 246 330 303 228 225 207 182 174 177 170 150 146 139 138 143 144 138 135 133 132 132 126 117 110
275 240 238 255 241 249 249 256 244 242 266 261 254 253 273 305 282 284 245 297 349 11 15 202 206 213 227 240 231 197 288 313 301 231 237 187 175 165 165 164 153 145 139 141 145 142 139 141 146 151 155 152 141 137
250 234 210 257 209 235 290 288 308 321 290 270 287 329 309 313 276 255 271 328 336 9 6 32 204 211 221 221 197 182 280 291 187 203 162 175 184 169 156 155 157 161 150 146 146 150 152 156 164 144 119 133 126 108
276 269 257 252 259 253 266 259 266 260 263 289 344 341 347 327 340 311 332 347 330 326 357 351 218 219 215 177 154 18 277 189 161 115 163 159 172 165 152 155 157 149 154 163 151 150 146 141 150 156 128 107 108 105
258 270 244 315 276 264 262 278 266 266 221 240 246 307 323 227 255 276 304 332 338 17 78 68 94 149 195 188 189 308 194 182 176 151 149 156 163 161 157 155 150 151 147 148 151 154 156 154 136 133 130 129 114 117
257 254 281 279 271 240 240 232 256 262 314 333 320 288 260 279 310 320 337 343 12 122 118 119 137 165 176 188 195 226 171 172 174 163 154 161 168 174 162 156 163 163 160 163 171 177 167 142 167 134 121 127 129 132
269 272 249 275 239 253 245 238 275 297 302 299 284 284 288 294 315 341 346 354 19 61 120 117 143 158 161 169 155 161 160 167 191 192 175 167 169 157 162 166 166 169 168 165 167 176 186 202 164 148 139 145 158 188
284 284 280 278 266 278 281 288 290 289 288 288 288 262 264 291 16 45 13 12 164 179 172 164 173 176 162 168 164 161 160 143 164 179 175 158 153 151 149 149 146 143 144 151 155 148 150 145 137 140 139 117 59 208
268 267 277 300 296 309 310 294 296 268 294 296 310 335 126 174 159 67 22 25 179 209 202 179 166 161 160 171 175 153 107 146 154 158 164 167 167 158 154 161 165 159 158 153 145 145 148 131 138 146 153 123 103 117
267 278 281 279 286 284 308 287 289 284 277 284 304 327 343 118 123 149 60 58 84 111 118 141 166 159 150 163 172 162 119 128 161 161 164 160 161 165 163 163 166 169 171 169 160 157 142 133 162 183 142 119 134 139